"2016-02-29 00:00:00",1415451,5.159,212.1,9.01,1.351,15.86,104.9729,12,13.1,14.32,0,110.5,13.12,12.80,174.1
"2016-02-29 00:00:30",1415452,4.97,208.6,5.302,0.654,14.37,104.9729,12,13.06,14.36,0,110.5,13.12,12.80,170.6
"2016-02-29 00:01:00",1415453,5.067,207.2,6.571,0.261,13.7,104.9729,12,12.99,14.57,0,110.5,13.17,12.80,169.2
"2016-02-29 00:01:30",1415454,5.435,204.6,2.021,0.186,13.82,104.9729,12,13.02,14.85,0,110.5,13.17,12.80,166.6
"2016-02-29 00:02:00",1415455,5.313,207.4,4.325,0.237,14.02,104.9741,12.01,13.02,14.98,0,110.5,13.17,12.80,169.4
"2016-02-29 00:02:30",1415456,5.42,214.6,8.59,1.433,16.74,104.98,12.02,13.25,15.16,0,110.4,13.12,12.82,176.6
"2016-02-29 00:03:00",1415457,5.629,221,8.68,1.444,17.71,104.9876,12.04,13.28,15.1,0,110.5,13.12,12.83,183.0
"2016-02-29 00:03:30",1415458,5.635,205.9,9.62,1.008,15.9,104.9907,12.05,13.12,14.85,0,110.5,13.12,12.84,167.9
"2016-02-29 00:04:00",1415459,5.248,201.6,3.747,0.26,14.07,104.9958,12.06,13.05,14.83,0,110.5,13.17,12.86,163.6
"2016-02-29 00:04:30",1415460,5.522,219.6,7.796,1.354,16.03,104.9972,12.07,13.27,14.77,0,110.5,13.13,12.86,181.6
"2016-02-29 00:05:00",1415461,4.396,197.4,10.13,1.053,14.59,105.0003,12.07,13.07,14.72,0,110.5,13.13,12.87,159.4
"2016-02-29 00:05:30",1415462,4.286,191.2,4.472,0.217,13.59,105.0034,12.08,13.05,15.06,0,110.5,13.18,12.88,153.2
"2016-02-29 00:06:00",1415463,4.147,196.5,6.478,0.157,13.66,105.0068,12.09,13.07,15.1,0,110.5,13.18,12.88,158.5
"2016-02-29 00:06:30",1415464,3.938,190.5,3.218,0.453,13.86,105.0068,12.09,13.07,15.37,0,110.5,13.18,12.88,152.5
"2016-02-29 00:07:00",1415465,3.603,197.4,4.601,0.318,14.25,105.0068,12.09,13.09,14.71,0,110.5,13.18,12.88,159.4
"2016-02-29 00:07:30",1415466,4.553,235.7,11.41,1.462,15.62,105.0071,12.09,13.24,14.54,0,110.5,13.13,12.88,197.7
"2016-02-29 00:08:00",1415467,4.312,206.7,29.46,1.114,16.27,105.0068,12.09,13.22,14.34,0,110.5,13.13,12.88,168.7
"2016-02-29 00:08:30",1415468,4.582,196.9,11.11,1.427,16.76,105.0068,12.09,13.29,15.01,0,110.5,13.13,12.88,158.9
"2016-02-29 00:09:00",1415469,3.988,188.3,8.32,1.182,15.69,105.0068,12.09,13.21,15.32,0,110.5,13.13,12.88,150.3
"2016-02-29 00:09:30",1415470,4.893,189.7,6.33,1.416,16.05,105.0071,12.09,13.26,15.98,0,110.5,13.13,12.88,151.7
"2016-02-29 00:10:00",1415471,5.937,198,7.082,1.252,15.99,105.0071,12.09,13.23,15.94,0,110.5,13.13,12.88,160.0
"2016-02-29 00:10:30",1415472,5.414,191.2,1.623,0.356,13.54,105.0068,12.09,13.09,15.56,0,110.5,13.18,12.88,153.2
"2016-02-29 00:11:00",1415473,5.703,193.5,2.442,0.17,13.58,105.0071,12.09,13.1,15.63,0,110.5,13.18,12.88,155.5
"2016-02-29 00:11:30",1415474,5.858,195.3,1.838,0.18,13.8,105.0074,12.09,13.1,15.4,0,110.5,13.18,12.89,157.3
"2016-02-29 00:12:00",1415475,6.954,216.7,14.71,1.422,16.55,105.0048,12.08,13.21,15.05,0,110.5,13.13,12.88,178.7
"2016-02-29 00:12:30",1415476,7.798,230.5,6.718,1.398,15.94,104.9952,12.06,13.18,13.86,0,110.5,13.13,12.85,192.5
"2016-02-29 00:13:00",1415477,6.727,221.7,6.915,0.828,14.54,104.9949,12.06,13.07,13.49,0,110.5,13.18,12.85,183.7
"2016-02-29 00:13:30",1415478,6.567,220.6,8.06,1.364,17.39,104.9927,12.05,13.28,13.95,0,110.5,13.13,12.85,182.6
"2016-02-29 00:14:00",1415479,7.177,216,9.39,1.336,17.96,104.9919,12.05,13.32,14.33,0,110.5,13.13,12.85,178.0
"2016-02-29 00:14:30",1415480,5.392,217.4,9.76,0.933,15.11,104.9941,12.06,13.16,14.18,0,110.5,13.13,12.85,179.4
"2016-02-29 00:15:00",1415481,5.306,216.9,9.76,0.459,13.88,104.9941,12.06,13.07,14.04,0,110.5,13.17,12.85,178.9
"2016-02-29 00:15:30",1415482,5.25,219,12.22,0.544,14.02,104.9965,12.06,13.06,13.49,0,110.5,13.17,12.86,181.0
"2016-02-29 00:16:00",1415483,5.641,213.7,7.263,1.285,15.22,104.9966,12.06,13.1,13.88,0,110.5,13.12,12.86,175.7
"2016-02-29 00:16:30",1415484,5.798,226.6,5.991,1.415,17.38,104.9962,12.06,13.26,13.94,0,110.5,13.12,12.86,188.6
"2016-02-29 00:17:00",1415485,4.182,217,3.427,0.592,14.37,104.9995,12.07,13.07,13.55,0,110.5,13.12,12.87,179.0
"2016-02-29 00:17:30",1415486,4.389,214.8,9.73,0.248,14.25,105.0013,12.08,13.06,13.86,0,110.5,13.17,12.87,176.8
"2016-02-29 00:18:00",1415487,4.692,217.6,8.27,0.914,14.91,105.0016,12.08,13.06,13.93,0,110.4,13.12,12.87,179.6
"2016-02-29 00:18:30",1415488,5.255,227.6,8.75,1.359,16.86,105.0014,12.08,13.26,14.12,0,110.5,13.12,12.87,189.6
"2016-02-29 00:19:00",1415489,5.883,221.2,10.26,1.294,17.8,105.0016,12.08,13.26,13.95,0,110.5,13.12,12.87,183.2
"2016-02-29 00:19:30",1415490,5.392,211.5,7.898,1.245,15.74,105.0033,12.08,13.18,13.71,0,110.5,13.12,12.88,173.5
"2016-02-29 00:20:00",1415491,4.629,209.8,4.621,0.295,14.1,105.0048,12.08,13.07,13.45,0,110.5,13.17,12.88,171.8
"2016-02-29 00:20:30",1415492,4.977,222.4,8.23,1.196,14.85,105.0062,12.09,13.08,13.06,0,110.5,13.13,12.88,184.4
"2016-02-29 00:21:00",1415493,5.61,219.6,6.084,1.423,16.04,105.0077,12.09,13.25,13.07,0,110.5,13.13,12.89,181.6
"2016-02-29 00:21:30",1415494,5.425,208,9.71,1.307,15.48,105.0097,12.1,13.13,13.03,0,110.4,13.13,12.89,170.0
"2016-02-29 00:22:00",1415495,5.132,205.1,2.874,0.218,14.33,105.0114,12.1,13.08,13.55,0,110.4,13.18,12.90,167.1
"2016-02-29 00:22:30",1415496,6.168,213.7,7.838,1.333,15.67,105.0136,12.11,13.13,13.88,0,110.4,13.13,12.90,175.7
"2016-02-29 00:23:00",1415497,5.944,220.1,7.266,1.355,16.28,105.014,12.11,13.27,14.15,0,110.4,13.13,12.90,182.1
"2016-02-29 00:23:30",1415498,6.253,220.6,9.02,1.361,16.25,105.0163,12.11,13.14,13.77,0,110.4,13.13,12.91,182.6
"2016-02-29 00:24:00",1415499,5.741,222.1,7.848,1.155,15.62,105.0154,12.11,13.25,13.27,0,110.5,13.13,12.91,184.1
"2016-02-29 00:24:30",1415500,5.942,216.4,5.488,1.164,15.52,105.0156,12.11,13.14,13.45,0,110.5,13.13,12.91,178.4
"2016-02-29 00:25:00",1415501,6.49,212.6,6.048,1.395,15.75,105.0156,12.11,13.23,13.62,0,110.4,13.13,12.91,174.6
"2016-02-29 00:25:30",1415502,6.363,219.3,11.38,1.497,17.06,105.0157,12.11,13.25,13.21,0,110.4,13.13,12.91,181.3
"2016-02-29 00:26:00",1415503,4.19,222.6,8.07,0.403,14.25,105.0171,12.12,13.1,13.41,0,110.4,13.18,12.91,184.6
"2016-02-29 00:26:30",1415504,4.557,229.9,2.942,0.553,14.44,105.016,12.11,13.1,12.88,0,110.4,13.18,12.91,191.9
"2016-02-29 00:27:00",1415505,5.213,246.4,7.414,1.102,14.95,105.0172,12.12,13.11,12.62,0,110.4,13.13,12.91,208.4
"2016-02-29 00:27:30",1415506,7.078,247.9,8.16,1.609,17.37,105.0169,12.12,13.32,12.91,0,110.4,13.14,12.91,209.9
"2016-02-29 00:28:00",1415507,5.57,219,7.722,0.869,14.47,105.0158,12.11,13.11,12.8,0,110.4,13.14,12.91,181.0
"2016-02-29 00:28:30",1415508,5.913,227.3,8.11,1.396,15.5,105.0164,12.11,13.18,13.13,0,110.4,13.14,12.91,189.3
"2016-02-29 00:29:00",1415509,7.033,234.9,7.706,1.527,17.08,105.0184,12.12,13.31,13.1,0,110.4,13.14,12.91,196.9
"2016-02-29 00:29:30",1415510,6.182,228.3,10.49,1.789,17.08,105.0182,12.12,13.28,13.06,0,110.4,13.14,12.91,190.3
"2016-02-29 00:30:00",1415511,5.379,212.4,7.896,1.368,16.32,105.0163,12.11,13.25,13.24,0,110.4,13.14,12.91,174.4
"2016-02-29 00:30:30",1415512,4.346,223.8,8.35,0.241,14.1,105.0151,12.11,13.09,13.3,0,110.4,13.18,12.91,185.8
"2016-02-29 00:31:00",1415513,4.517,232.6,4.527,0.622,14.28,105.0142,12.11,13.11,13.13,0,110.4,13.18,12.90,194.6
"2016-02-29 00:31:30",1415514,6.448,233.1,7.291,1.096,15.61,105.0158,12.11,13.14,13.2,0,110.4,13.14,12.91,195.1
"2016-02-29 00:32:00",1415515,6.031,239.7,10.9,1.329,16.61,105.0116,12.1,13.28,13.42,0,110.4,13.13,12.90,201.7
"2016-02-29 00:32:30",1415516,4.835,232,10.88,1.112,15.36,105.011,12.1,13.11,13.06,0,110.4,13.13,12.89,194.0
"2016-02-29 00:33:00",1415517,4.148,224.3,2.402,0.295,14.1,105.0096,12.1,13.08,13.14,0,110.4,13.17,12.89,186.3
"2016-02-29 00:33:30",1415518,3.706,244.8,17.38,1.073,15.56,105.0076,12.09,13.2,13.32,0,110.4,13.13,12.89,206.8
"2016-02-29 00:34:00",1415519,3.987,240.7,7.602,1.472,17.15,105.0083,12.09,13.23,12.92,0,110.4,13.12,12.89,202.7
"2016-02-29 00:34:30",1415520,3.507,219.2,9.64,1.531,15.93,105.0046,12.08,13.23,12.96,0,110.4,13.12,12.88,181.2
"2016-02-29 00:35:00",1415521,3.548,222.9,6.303,1.23,15.33,104.9981,12.07,13.14,13.26,0,110.4,13.12,12.86,184.9
"2016-02-29 00:35:30",1415522,3.16,228.4,12.4,0.529,14.15,104.9928,12.05,13.08,13.06,0,110.4,13.17,12.85,190.4
"2016-02-29 00:36:00",1415523,3.594,218,3.193,0.191,14.33,104.9937,12.06,13.07,13.06,0,110.4,13.17,12.85,180.0
"2016-02-29 00:36:30",1415524,3.161,233.2,5.302,0.403,14.57,104.9925,12.05,13.09,13.17,0,110.4,13.17,12.85,195.2
"2016-02-29 00:37:00",1415525,4.109,236.8,6.156,1.474,17.09,104.9937,12.06,13.19,13.35,0,110.4,13.13,12.85,198.8
"2016-02-29 00:37:30",1415526,3.896,235.6,6.393,1.388,16.01,104.9934,12.06,13.15,13.26,0,110.4,13.14,12.85,197.6
"2016-02-29 00:38:00",1415527,2.854,239,5.453,0.174,14.33,104.9934,12.06,13.07,13.05,0,110.4,13.19,12.85,201.0
"2016-02-29 00:38:30",1415528,2.985,236.8,8.61,0.219,14.18,104.9948,12.06,13.04,12.91,0,110.4,13.19,12.85,198.8
"2016-02-29 00:39:00",1415529,4.426,258.1,9.64,1.539,15.86,104.9891,12.04,13.1,12.93,0,110.4,13.14,12.84,220.1
"2016-02-29 00:39:30",1415530,5.339,264.8,11,1.534,18.05,104.9879,12.04,13.29,13.15,0,110.4,13.14,12.84,226.8
"2016-02-29 00:40:00",1415531,5.322,256.8,14.75,1.375,16.25,104.9811,12.02,13.2,13.11,0,110.4,13.14,12.82,218.8
"2016-02-29 00:40:30",1415532,5.134,246.1,7.806,0.634,14.75,104.9788,12.02,13.1,13.14,0,110.4,13.19,12.81,208.1
"2016-02-29 00:41:00",1415533,4.375,238.3,2.802,0.399,14.26,104.9704,12,13.02,13.66,0,110.4,13.19,12.79,200.3
"2016-02-29 00:41:30",1415534,4.309,232.2,6.095,1.124,15.83,104.9622,11.98,13.14,13.78,0,110.4,13.14,12.77,194.2
"2016-02-29 00:42:00",1415535,4.917,229.1,7.54,1.568,15.94,104.9631,11.98,13.13,13.75,0,110.4,13.14,12.77,191.1
"2016-02-29 00:42:30",1415536,3.706,222.3,5.986,0.453,14.28,104.9654,11.98,13.01,13.79,0,110.4,13.19,12.78,184.3
"2016-02-29 00:43:00",1415537,3.622,208.7,5.323,0.354,14.25,104.9656,11.98,12.98,13.83,0,110.4,13.19,12.78,170.7
"2016-02-29 00:43:30",1415538,5.476,223.2,8.81,1.358,17.24,104.9591,11.97,13.14,14.03,0,110.4,13.14,12.76,185.2
"2016-02-29 00:44:00",1415539,4.614,237.8,7.898,1.56,17.24,104.9468,11.94,13.2,14.05,0,110.4,13.14,12.73,199.8
"2016-02-29 00:44:30",1415540,4.576,241.6,10.5,1.38,16.46,104.9424,11.93,13.05,13.82,0,110.4,13.14,12.72,203.6
"2016-02-29 00:45:00",1415541,3.401,231,4.91,0.168,14.52,104.9405,11.92,12.93,13.58,0,110.4,13.19,12.71,193.0
"2016-02-29 00:45:30",1415542,3.937,234.8,6.202,0.974,15.2,104.9388,11.92,13,13.57,0,110.4,13.14,12.71,196.8
"2016-02-29 00:46:00",1415543,4.698,237.4,8.83,1.5,16.63,104.9233,11.88,13.03,13.45,0,110.4,13.14,12.67,199.4
"2016-02-29 00:46:30",1415544,3.963,230.3,10.33,1.165,15.71,104.9075,11.84,13,13.58,0,110.4,13.14,12.63,192.3
"2016-02-29 00:47:00",1415545,3.503,221.2,2.793,0.416,14.23,104.9069,11.83,12.87,13.73,0,110.4,13.19,12.63,183.2
"2016-02-29 00:47:30",1415546,3.537,222.6,3.06,0.214,14.23,104.9066,11.83,12.85,13.85,0,110.4,13.19,12.63,184.6
"2016-02-29 00:48:00",1415547,5.03,225.4,8.01,1.513,16.7,104.8968,11.81,13.02,14.17,0,110.4,13.15,12.60,187.4
"2016-02-29 00:48:30",1415548,5.813,217.8,8.65,1.354,17.52,104.8883,11.79,13.03,14.48,0,110.4,13.15,12.58,179.8
"2016-02-29 00:49:00",1415549,5.298,216.1,7.393,1.365,16.89,104.8756,11.75,12.94,14.51,0,110.4,13.14,12.55,178.1
"2016-02-29 00:49:30",1415550,4.581,219.7,3.29,0.277,14.5,104.8731,11.75,12.81,14.46,0,110.4,13.19,12.54,181.7
"2016-02-29 00:50:00",1415551,4.804,227.5,11.03,1.046,16.03,104.8629,11.72,12.9,14.29,0,110.4,13.14,12.51,189.5
"2016-02-29 00:50:30",1415552,4.885,240.6,8.55,1.623,17.47,104.8539,11.7,12.91,14.06,0,110.4,13.14,12.49,202.6
"2016-02-29 00:51:00",1415553,3.271,236.3,2.713,0.247,14.3,104.8392,11.66,12.75,13.84,0,110.4,13.19,12.45,198.3
"2016-02-29 00:51:30",1415554,3.601,231.7,5.128,0.242,14.11,104.8392,11.66,12.72,13.86,0,110.4,13.19,12.45,193.7
"2016-02-29 00:52:00",1415555,3.18,230.7,4.33,0.189,14.22,104.8311,11.64,12.71,13.8,0,110.4,13.19,12.43,192.7
"2016-02-29 00:52:30",1415556,3.98,235.4,10.05,1.444,15.96,104.8218,11.62,12.79,13.97,0,110.4,13.15,12.41,197.4
"2016-02-29 00:53:00",1415557,5.817,232.8,11.09,1.565,17.19,104.8086,11.58,12.83,14.02,0,110.4,13.14,12.38,194.8
"2016-02-29 00:53:30",1415558,5.526,222.9,7.622,1.447,16.58,104.8092,11.58,12.83,14.09,0,110.4,13.14,12.38,184.9
"2016-02-29 00:54:00",1415559,4.385,226.5,8.83,1.287,16.08,104.8091,11.58,12.69,13.9,0,110.4,13.15,12.38,188.5
"2016-02-29 00:54:30",1415560,3.732,213.7,5.653,1.597,16.02,104.7984,11.56,12.73,13.97,0,110.4,13.15,12.35,175.7
"2016-02-29 00:55:00",1415561,4.439,211.9,9.73,1.435,16.2,104.7846,11.52,12.78,14.29,0,110.4,13.15,12.31,173.9
"2016-02-29 00:55:30",1415562,3.795,205.7,3.513,0.234,14.07,104.7807,11.51,12.58,14.22,0,110.4,13.2,12.30,167.7
"2016-02-29 00:56:00",1415563,4.082,220.6,9.13,0.545,14.13,104.7807,11.51,12.56,14.2,0,110.4,13.2,12.30,182.6
"2016-02-29 00:56:30",1415564,4.082,239.6,4.991,0.886,14.3,104.7829,11.52,12.54,14.02,0,110.3,13.2,12.31,201.6
"2016-02-29 00:57:00",1415565,6.168,229.9,8.6,1.69,15.75,104.7745,11.5,12.62,14.07,0,110.3,13.16,12.29,191.9
"2016-02-29 00:57:30",1415566,6.736,226.9,13.97,1.336,17.66,104.7665,11.47,12.72,14.25,0,110.4,13.16,12.27,188.9
"2016-02-29 00:58:00",1415567,5.73,234.5,9.02,1.535,16.87,104.7578,11.45,12.62,14.24,0,110.4,13.16,12.24,196.5
"2016-02-29 00:58:30",1415568,4.806,221,10.18,1.8,16.95,104.7584,11.45,12.69,14.33,0,110.4,13.16,12.25,183.0
"2016-02-29 00:59:00",1415569,5.962,208.4,8.78,1.634,15.9,104.7608,11.46,12.64,14.57,0,110.4,13.16,12.25,170.4
"2016-02-29 00:59:30",1415570,6.592,209.5,6.959,1.274,14.92,104.7561,11.45,12.5,14.75,0,110.4,13.16,12.24,171.5
"2016-02-29 01:00:00",1415571,5.246,218.3,5.498,0.522,14.24,104.7505,11.43,12.45,14.12,0,110.3,13.2,12.23,180.3
"2016-02-29 01:00:30",1415572,4.406,228.9,7.021,0.36,14.4,104.7458,11.42,12.44,14.09,0,110.3,13.2,12.21,190.9
"2016-02-29 01:01:00",1415573,6.128,226.2,9.82,1.089,15.77,104.734,11.39,12.48,13.89,0,110.3,13.16,12.18,188.2
"2016-02-29 01:01:30",1415574,6.129,228,10.39,1.401,17.15,104.734,11.39,12.57,14.41,0,110.3,13.16,12.18,190.0
"2016-02-29 01:02:00",1415575,6.605,214,10.85,1.554,18.01,104.7346,11.39,12.58,14.96,0,110.4,13.16,12.19,176.0
"2016-02-29 01:02:30",1415576,5.519,242.6,15.99,1.537,17.32,104.7387,11.4,12.61,14.78,0,110.3,13.16,12.20,204.6
"2016-02-29 01:03:00",1415577,5.184,265.3,12.08,1.329,16.86,104.7382,11.4,12.59,14.52,0,110.3,13.16,12.19,227.3
"2016-02-29 01:03:30",1415578,2.558,258.3,14.34,0.801,14.16,104.7343,11.39,12.37,13.97,0,110.3,13.2,12.18,220.3
"2016-02-29 01:04:00",1415579,2.553,217.9,9.9,0.399,13.66,104.73,11.38,12.38,14.11,0,110.3,13.21,12.17,179.9
"2016-02-29 01:04:30",1415580,2.297,211.7,8.68,0.537,13.78,104.7295,11.38,12.36,14.17,0,110.4,13.2,12.17,173.7
"2016-02-29 01:05:00",1415581,2.559,221.3,11.94,0.409,13.98,104.7343,11.39,12.37,15.02,0,110.4,13.2,12.18,183.3
"2016-02-29 01:05:30",1415582,2.308,218.8,12.39,0.773,14.35,104.7393,11.41,12.35,15.33,0,110.3,13.21,12.20,180.8
"2016-02-29 01:06:00",1415583,5.354,196.1,9.1,1.509,16.9,104.7362,11.4,12.54,14.83,0,110.3,13.16,12.19,158.1
"2016-02-29 01:06:30",1415584,6.337,201.6,7.071,1.409,17.83,104.7292,11.38,12.53,15.61,0,110.3,13.16,12.17,163.6
"2016-02-29 01:07:00",1415585,6.239,206.9,8.09,1.46,17.74,104.7213,11.36,12.56,15.86,0,110.3,13.15,12.15,168.9
"2016-02-29 01:07:30",1415586,5.583,206.1,7.144,1.192,15.76,104.7125,11.34,12.47,15.88,0,110.3,13.16,12.13,168.1
"2016-02-29 01:08:00",1415587,5.499,209.3,6.318,1.139,15.31,104.7055,11.32,12.41,15.77,0,110.3,13.16,12.11,171.3
"2016-02-29 01:08:30",1415588,4.349,206.7,2.213,0.19,14.04,104.7055,11.32,12.33,15.25,0,110.3,13.2,12.11,168.7
"2016-02-29 01:09:00",1415589,4.268,208.7,3.537,0.276,14.15,104.7055,11.32,12.33,14.92,0,110.3,13.2,12.11,170.7
"2016-02-29 01:09:30",1415590,3.707,201.4,3.38,0.267,14.37,104.7046,11.32,12.32,14.75,0,110.3,13.2,12.11,163.4
"2016-02-29 01:10:00",1415591,6.073,211.5,8.76,1.351,16,104.697,11.3,12.38,14.57,0,110.3,13.16,12.09,173.5
"2016-02-29 01:10:30",1415592,6.278,222.8,11.14,1.229,17.43,104.6897,11.28,12.53,14.57,0,110.3,13.16,12.07,184.8
"2016-02-29 01:11:00",1415593,5.008,239.5,15.9,1.425,18.18,104.6838,11.26,12.52,14.34,0,110.3,13.17,12.05,201.5
"2016-02-29 01:11:30",1415594,4.982,246.2,8.89,1.454,17.43,104.677,11.25,12.49,14.22,0,110.3,13.17,12.04,208.2
"2016-02-29 01:12:00",1415595,4.081,217.2,9.47,1.305,15.3,104.6731,11.24,12.4,14.04,0,110.3,13.17,12.03,179.2
"2016-02-29 01:12:30",1415596,3.958,228.6,9.03,0.28,13.93,104.6861,11.27,12.29,14.08,0,110.3,13.22,12.06,190.6
"2016-02-29 01:13:00",1415597,3.757,214.8,5.41,0.283,13.82,104.6886,11.28,12.29,14.67,0,110.3,13.22,12.07,176.8
"2016-02-29 01:13:30",1415598,3.792,214.6,3.578,0.247,14.11,104.6825,11.26,12.29,15.06,0,110.3,13.22,12.05,176.6
"2016-02-29 01:14:00",1415599,3.782,220.4,2.345,0.314,14.38,104.6781,11.25,12.28,15.33,0,110.3,13.22,12.04,182.4
"2016-02-29 01:14:30",1415600,4.856,237,14.66,0.817,16.26,104.6793,11.25,12.38,14.97,0,110.3,13.17,12.04,199.0
"2016-02-29 01:15:00",1415601,4.686,237.8,17.98,1.458,18.03,104.6802,11.25,12.49,14.55,0,110.3,13.17,12.05,199.8
"2016-02-29 01:15:30",1415602,4.376,215.6,14.78,1.497,18.13,104.6825,11.26,12.43,14.55,0,110.3,13.17,12.05,177.6
"2016-02-29 01:16:00",1415603,4.795,221.1,4.698,1.197,15.91,104.6828,11.26,12.4,14.85,0,110.3,13.17,12.05,183.1
"2016-02-29 01:16:30",1415604,5.187,226.4,8.77,1.136,15.53,104.6849,11.27,12.31,14.73,0,110.3,13.17,12.06,188.4
"2016-02-29 01:17:00",1415605,4.588,212.9,3.231,0.124,13.94,104.6835,11.26,12.24,14.92,0,110.3,13.22,12.05,174.9
"2016-02-29 01:17:30",1415606,3.645,211.3,5.161,0.444,14.06,104.68,11.25,12.24,15,0,110.3,13.22,12.04,173.3
"2016-02-29 01:18:00",1415607,3.227,204.2,4.565,0.351,14.28,104.6761,11.24,12.23,14.81,0,110.3,13.22,12.03,166.2
"2016-02-29 01:18:30",1415608,3.052,196.6,5.668,0.158,14.53,104.6728,11.24,12.23,14.88,0,110.3,13.22,12.03,158.6
"2016-02-29 01:19:00",1415609,4.499,198.6,7.308,1.501,16.69,104.6738,11.24,12.37,15.13,0,110.3,13.18,12.03,160.6
"2016-02-29 01:19:30",1415610,5.205,209.9,7.831,1.421,18.16,104.6713,11.23,12.47,15.43,0,110.3,13.18,12.02,171.9
"2016-02-29 01:20:00",1415611,4.594,201.4,8.14,1.411,17.33,104.6643,11.21,12.44,15.49,0,110.3,13.18,12.00,163.4
"2016-02-29 01:20:30",1415612,4.762,212.8,7.695,1.414,16.77,104.6641,11.21,12.32,15.08,0,110.3,13.17,12.00,174.8
"2016-02-29 01:21:00",1415613,3.644,206.2,5.405,0.404,14.06,104.6649,11.21,12.22,14.72,0,110.3,13.22,12.01,168.2
"2016-02-29 01:21:30",1415614,3.908,197.7,3.028,0.221,13.92,104.6664,11.22,12.19,14.99,0,110.3,13.22,12.01,159.7
"2016-02-29 01:22:00",1415615,4.053,205.3,6.079,0.177,14.08,104.6668,11.22,12.2,14.8,0,110.3,13.22,12.01,167.3
"2016-02-29 01:22:30",1415616,4.247,207.5,4.706,0.348,14.22,104.6606,11.2,12.18,15.09,0,110.3,13.22,12.00,169.5
"2016-02-29 01:23:00",1415617,4.216,206.6,5.214,0.29,14.58,104.6573,11.2,12.19,15.18,0,110.3,13.22,11.99,168.6
"2016-02-29 01:23:30",1415618,5.365,219.3,5.845,1.281,16.26,104.6517,11.18,12.33,15.4,0,110.3,13.17,11.97,181.3
"2016-02-29 01:24:00",1415619,6.497,224,7.055,1.315,18.7,104.6421,11.16,12.42,15.53,0,110.3,13.17,11.95,186.0
"2016-02-29 01:24:30",1415620,6.171,227.2,8.51,1.48,17.77,104.6382,11.15,12.42,15.31,0,110.3,13.17,11.94,189.2
"2016-02-29 01:25:00",1415621,5.818,227.5,6.862,1.243,16.38,104.6385,11.15,12.28,15.11,0,110.3,13.17,11.94,189.5
"2016-02-29 01:25:30",1415622,4.84,221.4,1.883,0.166,14.11,104.6394,11.15,12.15,14.96,0,110.3,13.21,11.94,183.4
"2016-02-29 01:26:00",1415623,4.851,220.8,1.695,0.215,14.06,104.6394,11.15,12.15,15.04,0,110.3,13.22,11.94,182.8
"2016-02-29 01:26:30",1415624,4.13,217.1,4.731,0.223,14.18,104.6394,11.15,12.14,15.17,0,110.3,13.22,11.94,179.1
"2016-02-29 01:27:00",1415625,3.529,221.1,3.452,0.374,14.47,104.6391,11.15,12.15,15.11,0,110.3,13.22,11.94,183.1
"2016-02-29 01:27:30",1415626,4.855,213.4,10.44,1.419,17.35,104.6379,11.15,12.35,15.28,0,110.3,13.17,11.94,175.4
"2016-02-29 01:28:00",1415627,5.238,206.2,10.03,1.671,16.13,104.6357,11.14,12.22,15.21,0,110.3,13.18,11.93,168.2
"2016-02-29 01:28:30",1415628,7.116,205.1,6.906,1.458,18.03,104.6317,11.13,12.4,15.6,0,110.3,13.18,11.92,167.1
"2016-02-29 01:29:00",1415629,6.993,203.2,8.5,1.434,16.99,104.6258,11.11,12.27,15.7,0,110.3,13.18,11.91,165.2
"2016-02-29 01:29:30",1415630,5.476,208.2,7.034,0.972,14.62,104.6196,11.1,12.2,15.86,0,110.3,13.18,11.89,170.2
"2016-02-29 01:30:00",1415631,4.929,203.9,6.666,0.354,13.79,104.6168,11.09,12.11,15.65,0,110.3,13.23,11.88,165.9
"2016-02-29 01:30:30",1415632,4.788,203.9,11.59,0.555,13.7,104.6173,11.09,12.11,16.26,0,110.3,13.23,11.88,165.9
"2016-02-29 01:31:00",1415633,4.204,218.7,9.24,0.879,14.81,104.6106,11.08,12.2,16.26,0,110.2,13.18,11.87,180.7
"2016-02-29 01:31:30",1415634,5.352,220.1,9.9,1.392,16.56,104.6063,11.06,12.19,16.2,0,110.3,13.18,11.86,182.1
"2016-02-29 01:32:00",1415635,4.532,222.3,9.84,1.404,16.49,104.6055,11.06,12.23,16.19,0,110.3,13.18,11.85,184.3
"2016-02-29 01:32:30",1415636,4.219,232.8,13.9,1.561,16.75,104.6055,11.06,12.33,16.07,0,110.3,13.18,11.85,194.8
"2016-02-29 01:33:00",1415637,5.458,234.8,8.58,1.457,17.83,104.6055,11.06,12.3,15.43,0,110.3,13.18,11.85,196.8
"2016-02-29 01:33:30",1415638,4.323,222.8,2.613,0.265,14.16,104.606,11.06,12.07,14.86,0,110.3,13.23,11.85,184.8
"2016-02-29 01:34:00",1415639,4.048,216.9,2.624,0.175,13.51,104.6193,11.1,12.06,15.87,0,110.3,13.23,11.89,178.9
"2016-02-29 01:34:30",1415640,4.01,217.1,3.876,0.499,13.92,104.6171,11.09,12.06,15.99,0,110.3,13.23,11.88,179.1
"2016-02-29 01:35:00",1415641,3.937,213.5,4.215,0.344,14.08,104.6083,11.07,12.06,15.38,0,110.3,13.23,11.86,175.5
"2016-02-29 01:35:30",1415642,5.056,209.6,7.625,1.403,16.22,104.6055,11.06,12.17,15.8,0,110.3,13.18,11.85,171.6
"2016-02-29 01:36:00",1415643,4.625,205.9,5.676,1.226,15.95,104.6055,11.06,12.18,15.97,0,110.3,13.18,11.85,167.9
"2016-02-29 01:36:30",1415644,5.72,210.2,8.9,1.41,17.04,104.6055,11.06,12.19,16,0,110.3,13.18,11.85,172.2
"2016-02-29 01:37:00",1415645,5.903,218.4,7.888,1.391,17.36,104.6049,11.06,12.28,16.13,0,110.3,13.18,11.85,180.4
"2016-02-29 01:37:30",1415646,5.499,203.8,8.66,1.287,15.52,104.6015,11.05,12.13,16.15,0,110.3,13.18,11.84,165.8
"2016-02-29 01:38:00",1415647,4.745,201.6,3.514,0.384,13.65,104.5939,11.03,12.03,16.44,0,110.3,13.23,11.82,163.6
"2016-02-29 01:38:30",1415648,5.065,198.9,1.742,0.129,13.68,104.5883,11.02,12.02,16.44,0,110.3,13.23,11.81,160.9
"2016-02-29 01:39:00",1415649,4.734,202.3,3.826,0.272,13.9,104.5761,10.99,12.02,16.49,0,110.3,13.23,11.78,164.3
"2016-02-29 01:39:30",1415650,5.027,212,7.943,1.202,15.55,104.5737,10.98,12.17,16.85,0,110.3,13.18,11.77,174.0
"2016-02-29 01:40:00",1415651,5.352,211.4,10.61,1.229,16.39,104.5749,10.98,12.18,16.78,0,110.3,13.18,11.78,173.4
"2016-02-29 01:40:30",1415652,6.15,213.4,10.68,1.478,17.25,104.5775,10.99,12.18,16.66,0,110.2,13.18,11.78,175.4
"2016-02-29 01:41:00",1415653,6.12,205,8.71,1.429,17.54,104.577,10.99,12.22,16.59,0,110.2,13.17,11.78,167.0
"2016-02-29 01:41:30",1415654,5.219,205.3,6.943,1.227,15.12,104.5686,10.97,12.05,16.46,0,110.2,13.18,11.76,167.3
"2016-02-29 01:42:00",1415655,5.1,206.9,4.983,0.476,13.67,104.5609,10.95,11.96,16.24,0,110.2,13.22,11.74,168.9
"2016-02-29 01:42:30",1415656,5.047,195.8,3.829,0.321,13.7,104.5511,10.92,11.96,16.32,0,110.2,13.22,11.71,157.8
"2016-02-29 01:43:00",1415657,5.158,190,5.899,0.85,14.38,104.5472,10.91,11.95,16.32,0,110.3,13.18,11.70,152.0
"2016-02-29 01:43:30",1415658,6.626,193,7.301,1.457,15.9,104.5478,10.92,12.04,16.45,0,110.3,13.18,11.71,155.0
"2016-02-29 01:44:00",1415659,6.385,191.3,8.36,1.267,15.93,104.5496,10.92,12.1,16.55,0,110.2,13.18,11.71,153.3
"2016-02-29 01:44:30",1415660,6.409,198.3,8.44,1.395,17.56,104.5436,10.9,12.24,16.63,0,110.3,13.18,11.69,160.3
"2016-02-29 01:45:00",1415661,7.523,198.4,6.617,1.309,17.85,104.5375,10.89,12.16,16.53,0,110.2,13.18,11.68,160.4
"2016-02-29 01:45:30",1415662,5.765,192,4.194,1.043,14.48,104.5338,10.88,11.9,16.27,0,110.2,13.18,11.67,154.0
"2016-02-29 01:46:00",1415663,5.519,191.3,1.701,0.078,13.72,104.5288,10.87,11.89,16.27,0,110.3,13.23,11.66,153.3
"2016-02-29 01:46:30",1415664,5.308,188,0.625,0.069,13.91,104.5203,10.84,11.87,16.17,0,110.3,13.23,11.63,150.0